Volver al catálogo

SL-12 DEB

ActivoLEO
NORAD 18764·DEBRIS·🇷🇺 Russia

Lanzado May 30, 1985 desde Baikonur Cosmodrome

Loading…

Próximos Pases (próximas 24 horas)

TLE

ActualizadoSource: Space-Track

Época: Sep 14, 2026, 12:17 UTC

1 18764U 85042G   26257.51226216  .00000166  00000-0  67636-4 0  9997
2 18764  66.5911 141.7058 0098287 258.5906 159.6851 14.47918390 16841

Sigue SL-12 DEB en tiempo real con AllMySat

Download on the App Store